#timestamp,LO_Frequency,Hit,StdDev 
1624579215.1,286047001.5,N
1624579235.9,286047003.4,N
1624579255.7,286047004.7,N
1624579275.6,286047003.6,N
1624579295.4,286047004.0,N
1624579315.2,286047004.2,N
1624579335.1,286047003.9,N
1624579336.0,286047003.9,N
1624579355.8,286046999.9,N
1624579375.7,286046999.6,N
1624579395.5,286046997.2,N
1624579415.3,286047000.8,N
1624579435.2,286047004.4,N
1624579455.0,286047001.8,N
1624579455.9,286047001.8,N
1624579475.8,286047001.7,N
1624579495.6,286047000.4,N
1624579515.4,286047004.3,N
1624579535.3,286047007.1,Y
1624579555.1,286047003.1,P
1624579575.9,286047005.2,P
1624579595.7,286047003.3,N
1624579615.5,286047006.3,Y
1624579635.4,286047006.9,P
1624579655.2,286047008.8,P
1624579675.1,286047008.7,P
1624579676.0,286047008.7,Y
1624579695.8,286047002.0,P
1624579715.6,286047000.0,N
1624579735.5,286046998.8,N
1624579755.3,286046998.3,N
1624579775.1,286047002.4,N
1624579795.9,286046999.7,N
1624579815.7,286047001.0,N
1624579835.6,286046998.5,N
1624579855.4,286046996.7,N
1624579875.2,286046995.4,N
1624579895.1,286046993.8,N
1624579896.0,286046993.8,N
1624579915.8,286046994.5,N
1624579935.7,286046993.2,N
1624579955.5,286046993.0,N
1624579975.3,286046994.8,N
1624579995.2,286046997.0,N
1624580015.0,286046997.1,N
1624580015.9,286046997.1,N
1624580035.7,286046996.0,N
1624580055.6,286046994.1,N
1624580075.4,286046997.3,N
1624580095.3,286047002.7,N
1624580115.1,286046999.4,N
1624580116.0,286046999.4,N
1624580135.8,286046994.1,N
1624580155.7,286046994.5,N
1624580175.5,286046996.3,N
1624580195.3,286046995.1,N
1624580215.2,286046999.6,N
1624580235.0,286046998.9,N
1624580235.9,286046998.9,N
1624580255.8,286047002.6,N
1624580275.6,286046999.7,N
1624580295.4,286046997.7,N
1624580315.3,286047000.6,N
1624580335.1,286046998.5,N
1624580355.9,286046999.7,N
1624580375.7,286047000.3,N
1624580395.5,286047005.3,N
1624580415.4,286047003.2,N
1624580435.2,286047003.3,N
1624580455.0,286047002.6,N
1624580455.9,286047002.6,N
1624580475.8,286046997.3,N
1624580495.6,286046995.6,N
1624580515.5,286046995.7,N
1624580535.3,286046995.7,N
1624580555.1,286046993.6,N
1624580575.9,286046995.8,N
1624580595.7,286046995.9,N
1624580615.5,286046994.4,N
1624580635.4,286046991.0,N
1624580655.2,286046989.2,Y
1624580675.1,286046988.3,P
1624580676.0,286046988.3,N
1624580695.8,286046989.3,N
1624580715.6,286046992.7,N
1624580735.5,286046992.7,N
1624580755.3,286046990.3,N
1624580775.2,286046990.1,Y
1624580795.9,286047001.2,P
1624580815.7,286047004.3,N
1624580835.6,286047000.4,N
1624580855.4,286046996.8,N
1624580875.2,286046999.4,N
1624580895.1,286047000.7,N
1624580896.0,286047000.7,N
1624580915.8,286046998.1,N
1624580935.7,286047001.0,N
1624580955.5,286047000.8,N
1624580975.3,286046998.1,N
1624580995.2,286046999.0,N
1624581015.0,286047002.1,N
1624581015.9,286047002.1,N
1624581035.8,286047002.2,N
1624581055.6,286047002.0,N
1624581075.4,286046999.9,N
1624581095.3,286047001.0,N
1624581115.1,286047002.1,N
1624581135.8,286047003.0,N
1624581155.7,286047001.6,N
1624581175.5,286046999.9,N
1624581195.4,286047005.4,N
1624581215.2,286047002.9,N
1624581235.0,286047005.7,N
1624581235.9,286047005.7,N
1624581255.8,286047006.3,N
1624581275.6,286047006.6,N
1624581295.4,286047009.1,N
1624581315.3,286047007.5,N
1624581335.1,286047007.0,N
1624581355.9,286047009.0,N
1624581375.7,286047012.4,Y
1624581395.5,286047006.9,P
1624581415.4,286047004.9,N
1624581435.2,286047004.5,N
1624581455.1,286047006.2,Y
1624581456.0,286047006.2,P
1624581475.8,286047000.1,N
1624581495.6,286046998.6,N
1624581515.5,286047002.2,N
1624581535.3,286047003.9,N
1624581555.1,286047001.3,N
1624581575.9,286047003.6,N
1624581595.7,286047007.0,N
1624581615.6,286047009.1,Y
1624581635.4,286047007.2,P
1624581655.2,286047005.8,N
1624581675.1,286047005.0,N
1624581676.0,286047005.0,Y
1624581695.8,286046999.7,P
1624581715.7,286046999.3,N
1624581735.5,286046994.9,N
1624581755.3,286046997.2,N
1624581775.2,286046995.2,N
1624581795.9,286046997.3,N
1624581815.7,286046996.8,N
1624581835.6,286047001.1,N
1624581855.4,286047000.4,N
1624581875.3,286046999.8,N
1624581895.1,286047002.0,N
1624581896.0,286047002.0,N
1624581915.8,286047002.2,N
1624581935.7,286047001.8,N
1624581955.5,286047002.9,N
1624581975.3,286047005.7,N
1624581995.2,286047004.8,N
1624582015.0,286047005.9,N
1624582015.9,286047005.9,N
1624582035.8,286047008.7,N
1624582055.6,286047008.0,N
1624582075.4,286047004.7,N
1624582095.3,286047005.1,N
1624582115.1,286047002.8,N
1624582135.8,286047003.9,N
1624582155.7,286047005.9,N
1624582175.5,286047002.0,N
1624582195.4,286047000.6,N
1624582215.2,286047001.8,N
1624582235.0,286047003.0,N
1624582235.9,286047003.0,N
1624582255.8,286047008.0,N
1624582275.6,286047009.3,N
1624582295.4,286047010.4,N
1624582315.3,286047012.3,Y
1624582335.1,286047008.8,P
1624582355.9,286047005.8,N
1624582375.7,286047003.0,N
1624582395.5,286047002.3,N
1624582415.4,286046998.2,N
1624582435.2,286047002.3,N
1624582455.1,286047004.4,N
1624582456.0,286047004.4,N
1624582475.8,286047000.5,N
1624582495.6,286046999.0,N
1624582515.5,286047001.0,N
1624582535.3,286047002.4,N
1624582555.1,286047002.7,N
1624582575.9,286047005.8,N
1624582595.7,286047014.0,Y
1624582615.6,286047006.0,P
1624582635.4,286047002.2,N
1624582655.2,286047001.3,N
1624582675.1,286047004.4,N
1624582676.0,286047004.4,N
1624582695.8,286047003.1,N
1624582715.6,286047005.2,Y
1624582735.5,286047005.8,P
1624582755.3,286047005.8,P
1624582775.2,286047005.1,P
1624582795.9,286047006.2,Y
